SAS483 ESSA-ENGM

Flight info

Callsign SAS483
Flight time N/A
Altitude 36000
Route ARS N623 IBGAX DCT EBURI N623 ESEBA
Aircraft A320/M-SDE3FGHIJ1RWXYZ/ALB1

Departure

Time 2026-05-05 15:38
Airport Stockholm-Arlanda Airport (ESSA)

Arrival

Time N/A
Airport Oslo-Gardermoen International Airport (ENGM)
Time Latitude Longitude Altitude Speed Heading
2026-05-05 14:41 59.65330 17.93138 112 ft 0 kts 250°
2026-05-05 14:53 59.65330 17.93136 112 ft 1 kts 250°
2026-05-05 14:54 59.65327 17.93118 110 ft 2 kts 250°
2026-05-05 14:54 59.65321 17.93086 112 ft 3 kts 250°
2026-05-05 14:54 59.65320 17.93082 112 ft 0 kts 250°
2026-05-05 14:54 59.65331 17.93139 112 ft 7 kts 251°
2026-05-05 14:55 59.65330 17.93138 112 ft 0 kts 250°
2026-05-05 15:21 59.65331 17.93139 112 ft 1 kts 250°
2026-05-05 15:22 59.65339 17.93184 111 ft 4 kts 249°
2026-05-05 15:22 59.65347 17.93233 111 ft 4 kts 257°
2026-05-05 15:22 59.65349 17.93280 112 ft 4 kts 306°
2026-05-05 15:22 59.65344 17.93291 108 ft 0 kts 340°
2026-05-05 15:31 59.65356 17.93283 111 ft 3 kts 342°
2026-05-05 15:31 59.65388 17.93265 112 ft 6 kts 346°
2026-05-05 15:31 59.65437 17.93229 112 ft 9 kts 337°
2026-05-05 15:31 59.65495 17.93161 112 ft 10 kts 308°
2026-05-05 15:32 59.65495 17.93016 112 ft 12 kts 252°
2026-05-05 15:32 59.65463 17.92841 112 ft 15 kts 250°
2026-05-05 15:32 59.65408 17.92646 111 ft 18 kts 230°
2026-05-05 15:32 59.65311 17.92473 110 ft 20 kts 214°
2026-05-05 15:33 59.65175 17.92375 112 ft 21 kts 189°
2026-05-05 15:33 59.65023 17.92320 112 ft 23 kts 191°
2026-05-05 15:33 59.64864 17.92262 112 ft 21 kts 191°
2026-05-05 15:33 59.64718 17.92208 112 ft 22 kts 191°
2026-05-05 15:34 59.64579 17.92159 112 ft 17 kts 190°
2026-05-05 15:34 59.64470 17.92120 113 ft 13 kts 190°
2026-05-05 15:34 59.64385 17.92090 114 ft 13 kts 192°
2026-05-05 15:34 59.64333 17.91968 113 ft 14 kts 252°
2026-05-05 15:35 59.64255 17.91873 114 ft 15 kts 190°
2026-05-05 15:35 59.64147 17.91837 114 ft 17 kts 191°
2026-05-05 15:35 59.64021 17.91791 113 ft 20 kts 190°
2026-05-05 15:35 59.63888 17.91741 109 ft 16 kts 194°
2026-05-05 15:36 59.63794 17.91630 106 ft 14 kts 220°
2026-05-05 15:36 59.63729 17.91489 107 ft 13 kts 252°
2026-05-05 15:36 59.63735 17.91375 109 ft 6 kts 283°
2026-05-05 15:36 59.63764 17.91340 110 ft 6 kts 357°
2026-05-05 15:37 59.63826 17.91358 109 ft 21 kts
2026-05-05 15:37 59.64230 17.91497 107 ft 94 kts
2026-05-05 15:37 59.65068 17.91786 104 ft 148 kts 11°
2026-05-05 15:37 59.66141 17.92287 461 ft 160 kts 11°
2026-05-05 15:38 59.67218 17.92882 1051 ft 161 kts
2026-05-05 15:38 59.68343 17.92999 1535 ft 169 kts 341°
2026-05-05 15:38 59.69386 17.91771 1835 ft 186 kts 309°
2026-05-05 15:38 59.69910 17.89407 2369 ft 195 kts 275°
2026-05-05 15:39 59.69714 17.86712 3066 ft 200 kts 259°
2026-05-05 15:39 59.69420 17.84026 3932 ft 200 kts 260°
2026-05-05 15:39 59.69138 17.81322 4785 ft 201 kts 260°
2026-05-05 15:39 59.68861 17.78633 5609 ft 203 kts 260°
2026-05-05 15:40 59.68484 17.75855 6227 ft 219 kts 254°
2026-05-05 15:40 59.68003 17.72781 6645 ft 243 kts 253°
2026-05-05 15:40 59.67476 17.69495 7269 ft 256 kts 253°
2026-05-05 15:40 59.66864 17.66154 8110 ft 262 kts 244°
2026-05-05 15:41 59.65786 17.63277 8983 ft 268 kts 226°
2026-05-05 15:41 59.64434 17.60712 9888 ft 271 kts 226°
2026-05-05 15:41 59.63090 17.57957 10311 ft 289 kts 234°
2026-05-05 15:41 59.62014 17.54491 10694 ft 302 kts 247°
2026-05-05 15:42 59.61380 17.50513 11432 ft 305 kts 260°
2026-05-05 15:42 59.61189 17.46341 12263 ft 306 kts 267°
2026-05-05 15:42 59.61075 17.42146 13138 ft 306 kts 267°
2026-05-05 15:42 59.60956 17.37941 13696 ft 307 kts 266°
2026-05-05 15:43 59.60833 17.33758 13813 ft 304 kts 266°
2026-05-05 15:43 59.60707 17.29600 13805 ft 303 kts 266°
2026-05-05 15:43 59.60581 17.25492 13837 ft 296 kts 266°
2026-05-05 15:43 59.60457 17.21460 13877 ft 295 kts 266°
2026-05-05 15:44 59.60332 17.17393 14560 ft 296 kts 266°
2026-05-05 15:44 59.60206 17.13331 15347 ft 296 kts 266°
2026-05-05 15:44 59.60081 17.09277 16123 ft 295 kts 265°
2026-05-05 15:44 59.59955 17.05246 16923 ft 294 kts 265°
2026-05-05 15:45 59.59828 17.01225 17738 ft 292 kts 264°
2026-05-05 15:45 59.59701 16.97228 18488 ft 291 kts 264°
2026-05-05 15:45 59.59572 16.93233 19145 ft 293 kts 264°
2026-05-05 15:45 59.59441 16.89210 19762 ft 295 kts 264°
2026-05-05 15:46 59.59307 16.85148 20386 ft 298 kts 264°
2026-05-05 15:46 59.59168 16.81053 20958 ft 301 kts 264°
2026-05-05 15:46 59.59022 16.76918 21518 ft 304 kts 264°
2026-05-05 15:46 59.58876 16.72729 22069 ft 307 kts 264°
2026-05-05 15:47 59.58732 16.68510 22634 ft 310 kts 264°
2026-05-05 15:47 59.58685 16.65681 23003 ft 314 kts 269°
2026-05-05 15:47 59.59131 16.59905 23695 ft 322 kts 276°
2026-05-05 15:47 59.59578 16.55560 24147 ft 324 kts 276°
2026-05-05 15:48 59.60026 16.51178 24602 ft 327 kts 276°
2026-05-05 15:48 59.60473 16.46784 25127 ft 328 kts 276°
2026-05-05 15:48 59.60921 16.42364 25620 ft 329 kts 276°
2026-05-05 15:48 59.61367 16.37924 26072 ft 331 kts 276°
2026-05-05 15:49 59.61811 16.33453 26506 ft 333 kts 276°
2026-05-05 15:49 59.62255 16.28948 26924 ft 335 kts 276°
2026-05-05 15:49 59.62701 16.24415 27328 ft 337 kts 276°
2026-05-05 15:49 59.63159 16.19847 27729 ft 340 kts 277°
2026-05-05 15:50 59.63667 16.15259 28121 ft 343 kts 277°
2026-05-05 15:50 59.64022 16.12209 28391 ft 345 kts 278°
2026-05-05 15:50 59.64573 16.07579 28765 ft 347 kts 278°
2026-05-05 15:50 59.65127 16.02912 29148 ft 350 kts 278°
2026-05-05 15:51 59.65676 15.98214 29530 ft 352 kts 278°
2026-05-05 15:51 59.66223 15.93477 29916 ft 354 kts 277°
2026-05-05 15:51 59.66767 15.88706 30235 ft 357 kts 277°
2026-05-05 15:51 59.67310 15.83900 30562 ft 360 kts 277°
2026-05-05 15:52 59.67854 15.79047 30855 ft 363 kts 277°
2026-05-05 15:52 59.68399 15.74160 31153 ft 365 kts 277°
2026-05-05 15:52 59.68947 15.69256 31560 ft 365 kts 278°
2026-05-05 15:52 59.69496 15.64354 31955 ft 365 kts 278°
2026-05-05 15:53 59.70048 15.59431 32347 ft 366 kts 278°
2026-05-05 15:53 59.70593 15.54509 32725 ft 367 kts 278°
2026-05-05 15:53 59.71133 15.49568 33110 ft 367 kts 278°
2026-05-05 15:53 59.71670 15.44619 33504 ft 368 kts 278°
2026-05-05 15:54 59.72210 15.39654 33885 ft 369 kts 278°
2026-05-05 15:54 59.72754 15.34680 34188 ft 370 kts 278°
2026-05-05 15:54 59.73297 15.29685 34465 ft 371 kts 278°
2026-05-05 15:54 59.73838 15.24675 34724 ft 373 kts 278°
2026-05-05 15:55 59.74381 15.19627 35003 ft 375 kts 278°
2026-05-05 15:55 59.74924 15.14572 35268 ft 376 kts 278°
2026-05-05 15:55 59.75469 15.09483 35498 ft 378 kts 278°
2026-05-05 15:55 59.76013 15.04361 35739 ft 380 kts 278°
2026-05-05 15:56 59.76558 14.99222 35852 ft 382 kts 278°
2026-05-05 15:56 59.77637 14.88928 35884 ft 380 kts 278°
2026-05-05 15:57 59.78699 14.78717 35878 ft 380 kts 278°
2026-05-05 15:57 59.79755 14.68438 35871 ft 380 kts 278°
2026-05-05 15:58 59.80810 14.58127 35899 ft 382 kts 278°
2026-05-05 15:58 59.81876 14.47773 35884 ft 384 kts 278°
2026-05-05 15:58 59.82411 14.42512 35640 ft 392 kts 278°
2026-05-05 15:59 59.82950 14.37183 34942 ft 393 kts 278°
2026-05-05 15:59 59.83481 14.31884 34442 ft 388 kts 278°
2026-05-05 15:59 59.84005 14.26665 34023 ft 382 kts 277°
2026-05-05 15:59 59.84518 14.21529 33571 ft 375 kts 277°
2026-05-05 16:00 59.85019 14.16482 33095 ft 370 kts 277°
2026-05-05 16:00 59.85510 14.11502 32620 ft 364 kts 277°
2026-05-05 16:00 59.85995 14.06594 32165 ft 359 kts 277°
2026-05-05 16:00 59.86472 14.01750 31700 ft 354 kts 276°
2026-05-05 16:01 59.86938 13.96981 31239 ft 349 kts 276°
2026-05-05 16:01 59.87396 13.92272 30780 ft 344 kts 276°
2026-05-05 16:01 59.87845 13.87619 30326 ft 340 kts 276°
2026-05-05 16:01 59.88285 13.83035 29888 ft 335 kts 276°
2026-05-05 16:02 59.88718 13.78509 29377 ft 330 kts 276°
2026-05-05 16:02 59.89144 13.74041 28876 ft 326 kts 276°
2026-05-05 16:02 59.89565 13.69635 28457 ft 320 kts 276°
2026-05-05 16:02 59.89976 13.65365 28317 ft 308 kts 276°
2026-05-05 16:03 59.90372 13.61244 28175 ft 298 kts 276°
2026-05-05 16:03 59.90752 13.57252 28037 ft 289 kts 276°
2026-05-05 16:03 59.91117 13.53375 27889 ft 280 kts 275°
2026-05-05 16:03 59.91467 13.49621 27765 ft 271 kts 275°
2026-05-05 16:04 59.91803 13.45992 27630 ft 262 kts 275°
2026-05-05 16:04 59.92127 13.42497 27496 ft 252 kts 275°
2026-05-05 16:04 59.92438 13.39132 27365 ft 242 kts 275°
2026-05-05 16:04 59.92740 13.35880 27140 ft 236 kts 275°
2026-05-05 16:05 59.93033 13.32683 26819 ft 233 kts 275°
2026-05-05 16:05 59.93319 13.29516 26510 ft 231 kts 275°
2026-05-05 16:05 59.93604 13.26363 26149 ft 231 kts 275°
2026-05-05 16:05 59.93888 13.23220 25793 ft 230 kts 275°
2026-05-05 16:06 59.94173 13.20092 25447 ft 229 kts 275°
2026-05-05 16:06 59.94458 13.16983 25096 ft 227 kts 276°
2026-05-05 16:06 59.94741 13.13894 24775 ft 226 kts 276°
2026-05-05 16:06 59.95019 13.10826 24439 ft 224 kts 275°
2026-05-05 16:07 59.95295 13.07779 24091 ft 223 kts 275°
2026-05-05 16:07 59.95570 13.04746 23731 ft 221 kts 275°
2026-05-05 16:07 59.95837 13.01772 23392 ft 220 kts 275°
2026-05-05 16:07 59.96105 12.98779 23000 ft 218 kts 275°
2026-05-05 16:08 59.96369 12.95808 22647 ft 216 kts 276°
2026-05-05 16:08 59.96632 12.92871 22320 ft 214 kts 276°
2026-05-05 16:08 59.96891 12.89965 22048 ft 211 kts 276°
2026-05-05 16:08 59.97144 12.87101 21867 ft 208 kts 276°
2026-05-05 16:09 59.97392 12.84252 21869 ft 209 kts 276°
2026-05-05 16:09 59.97640 12.81399 21870 ft 209 kts 276°
2026-05-05 16:09 59.97891 12.78546 21869 ft 209 kts 276°
2026-05-05 16:09 59.98142 12.75690 21869 ft 209 kts 276°
2026-05-05 16:10 59.98391 12.72835 21870 ft 209 kts 276°
2026-05-05 16:10 59.98641 12.69980 21871 ft 209 kts 276°
2026-05-05 16:10 59.98889 12.67108 21651 ft 213 kts 276°
2026-05-05 16:10 59.99140 12.64185 21039 ft 213 kts 276°
2026-05-05 16:11 59.99391 12.61284 20449 ft 211 kts 276°
2026-05-05 16:11 60.00132 12.52629 18765 ft 211 kts 277°
2026-05-05 16:12 60.00376 12.49736 18226 ft 211 kts 277°
2026-05-05 16:12 60.00675 12.43960 17292 ft 205 kts 265°
2026-05-05 16:13 60.00206 12.35459 17143 ft 206 kts 266°
2026-05-05 16:13 60.00049 12.32616 17093 ft 206 kts 266°
2026-05-05 16:13 59.99890 12.29772 17045 ft 206 kts 265°
2026-05-05 16:14 59.99567 12.24085 16935 ft 206 kts 265°
2026-05-05 16:14 59.99237 12.18391 16820 ft 207 kts 265°
2026-05-05 16:15 59.98902 12.12678 16729 ft 207 kts 265°
2026-05-05 16:15 59.98563 12.06954 16426 ft 213 kts 265°
2026-05-05 16:16 59.98169 12.00183 13835 ft 281 kts 266°
2026-05-05 16:16 59.97671 11.91681 11347 ft 323 kts 265°
2026-05-05 16:17 59.97120 11.82678 9720 ft 330 kts 264°
2026-05-05 16:17 59.96835 11.78123 8857 ft 332 kts 264°
2026-05-05 16:18 59.96264 11.68942 7207 ft 335 kts 264°
2026-05-05 16:18 59.95978 11.64368 6649 ft 328 kts 264°
2026-05-05 16:18 59.95443 11.55901 5760 ft 285 kts 264°
2026-05-05 16:19 59.95201 11.52141 5522 ft 263 kts 264°
2026-05-05 16:19 59.94977 11.48642 5285 ft 245 kts 265°
2026-05-05 16:19 59.94574 11.42339 4820 ft 217 kts 265°
2026-05-05 16:20 59.94211 11.36694 4339 ft 198 kts 265°
2026-05-05 16:20 59.93864 11.31254 3988 ft 197 kts 265°
2026-05-05 16:21 59.93512 11.25816 3989 ft 197 kts 265°
2026-05-05 16:22 59.93165 11.17712 4000 ft 196 kts 278°
2026-05-05 16:22 59.93493 11.12316 3999 ft 195 kts 278°
2026-05-05 16:23 59.93812 11.06992 4004 ft 193 kts 278°
2026-05-05 16:23 59.93970 11.04336 4001 ft 193 kts 278°
2026-05-05 16:23 59.94429 10.99049 3997 ft 193 kts 282°
2026-05-05 16:24 59.94660 10.96486 4015 ft 180 kts 281°
2026-05-05 16:24 59.94885 10.94157 4011 ft 164 kts 289°
2026-05-05 16:24 59.96597 10.93223 3979 ft 157 kts 41°
2026-05-05 16:25 59.97276 10.94935 4000 ft 155 kts 35°